Погода в Тбилисской

Россия / Краснодарский край     45°21′52″N   40°12′06″E
темп.,
°C
ветер,
м/с
пор.,
м/с
влажн.,
%
обл.,
%
осадки,
мм/ч
давл.,
гПа
погр.,
м
28 января, чт
чт2800:00+4в3483100 0.0 100565
03:00+4вюв4676100 0.0 100399
06:00+4в3371100 0.0 100330
09:00+5св3367100 0.0 100333
12:00+9зсз397296 0.0 1006527
15:00+8зюз7138798 1.5 10071006
18:00+6зюз6148795 0.3 1009746
21:00+4зюз5128098 0.3 1010594
29 января, пт
пт2900:00+3зюз41177100 0.0 1012451
03:00+3зюз3981100 0.0 1012292
06:00+3юз3981100 0.0 1013259
09:00+3юз3878100 0.0 1014270
12:00+6юз5865100 0.0 10141080
15:00+6юз6964100 0.7 10131308
18:00+4ююз497533 0.1 1013228
21:00+2ю358450 0.1 1014111
30 января, сб
сб3000:00+1ю368995 0.0 1014128
03:00+1ююв338486 0.0 101343
06:00+1ююв338461 0.0 101352
09:00+2ююв367572 0.0 1013173
12:00+7ююв354966 0.0 1011422
15:00+8вюв354633 0.0 1010522
18:00+4вюв49640 0.0 1009162
21:00+3вюв410780 0.0 1008255
31 января, вс
вс3100:00+2вюв498236 0.0 1006185
03:00+2вюв477568 0.0 1004135
06:00+3ююз2364100 0.0 100442
09:00+7ююз61775100 0.1 1006651
12:00+10юз121867100 0.0 10081297
15:00+9юз111877100 0.1 10101047
18:00+7зюз8168195 0.0 1013839
21:00+7з5128497 0.0 1015431
1 февраля, пн
пн100:00+6зсз2493100 0.0 1016109
03:00+6юв3391100 0.0 101580
06:00+5в41084100 0.0 1015252
09:00+6в61271100 0.0 1015330
12:00+10вюв71155100 0.0 1013313
15:00+12юв4953100 0.0 1012350
18:00+9юв3465100 0.0 101385
21:00+8ююв2369100 0.0 101423